Location: Hamilton
(37.7830°S, 175.2830°E)
Time: 22:06:57
(UTC+12:00)

USA 238 DEB - Pass Details

Date: 24 January 2019
Orbit: 1043 x 1170 km, 63.4° (Epoch: 19 April)

Event Time Altitude Azimuth Distance (km) Brightness Sun altitude
Rises 22:12:54 0° 351° (N) 4,033 6.4 -16.4°
Reaches altitude 10° 22:15:46 10° 357° (N) 3,075 5.7 -16.9°
Maximum altitude 22:22:38 44° 66° (ENE) 1,570 4.1 -17.9°
Drops below altitude 10° 22:29:27 10° 135° (SE) 3,052 6.1 -18.8°
Sets 22:32:16 0° 140° (SE) 4,000 6.8 -19.2°
